Vorticity
16 15 11 11 12 12 9 5 5 6 7 4 3 2 3 4 6 10 14 16 17 17 17 20 21 21 18 16 16 16 17 16 14 11 8 7 7 8 8 8 8 8 9 10 10 10 10 10 10 11 14 16 17 17 15 12 10 8 7 7 8 10 14 16 18 19 19 22 25 27 25 20 11 1 -8 -12 -15 -12 -2 8 13 16 18 17 15 14
14 14 11 10 11 12 12 7 5 5 8 6 4 3 3 5 8 11 15 16 17 17 17 18 20 21 22 21 21 21 21 21 18 15 10 8 7 6 7 8 9 10 11 11 11 10 10 10 10 10 11 14 17 18 18 15 12 10 9 8 7 8 11 14 16 17 17 20 23 26 26 23 17 7 -4 -8 -12 -13 -7 4 11 15 18 17 16 14
13 13 9 9 10 12 13 10 6 5 7 7 6 5 5 8 11 14 16 17 16 16 15 15 17 19 20 22 24 25 27 26 25 22 18 15 12 10 10 10 11 12 13 13 13 12 11 11 11 11 11 13 15 17 18 17 16 14 12 11 10 10 11 13 15 16 16 18 21 23 25 25 21 13 1 -4 -9 -11 -9 -1 7 14 18 19 17 15
12 12 11 11 10 10 10 10 9 8 7 7 7 7 8 11 14 16 17 17 16 15 13 13 14 15 17 19 21 24 27 29 29 29 28 25 22 19 17 15 14 14 13 14 14 13 12 12 12 13 13 13 14 16 17 17 17 16 14 14 13 12 12 14 15 16 16 16 18 20 22 25 24 18 4 -2 -6 -7 -6 -3 4 13 19 20 19 17
12 12 12 12 11 9 8 9 9 10 9 9 10 12 14 16 17 18 17 17 16 15 13 12 13 14 15 16 18 20 23 26 28 30 30 30 28 26 24 21 19 17 15 14 14 14 13 13 14 15 16 16 16 16 16 16 16 15 14 14 14 13 13 14 16 17 17 16 16 17 18 23 26 22 7 -2 -5 -3 1 -1 4 12 20 22 21 19
13 12 12 12 11 10 10 10 10 11 13 14 15 17 18 19 19 18 17 16 15 14 13 12 12 13 14 15 16 17 19 22 24 26 28 29 29 28 27 25 23 20 17 15 15 14 14 14 15 17 18 18 18 18 18 17 16 15 13 13 13 13 13 13 15 17 19 18 17 16 15 21 27 26 12 -6 -7 -0 7 3 4 10 20 22 22 20
12 12 12 12 12 12 12 13 13 14 17 21 22 21 19 18 18 17 16 16 15 15 14 13 13 13 14 14 15 16 17 19 21 23 25 26 27 27 27 26 24 22 19 17 16 16 16 16 17 17 18 18 18 18 19 19 18 16 13 13 13 13 13 12 14 16 18 19 18 17 14 18 26 28 16 -9 -15 -8 5 3 3 6 15 18 18 18
10 10 10 11 12 12 13 15 15 16 18 24 26 25 21 17 14 14 15 15 16 16 15 14 14 14 14 14 15 16 17 19 20 22 23 24 24 25 25 24 23 22 19 18 17 18 19 19 18 18 18 18 18 18 18 19 19 18 16 14 14 14 14 13 12 13 16 18 19 18 16 17 25 29 21 -5 -18 -20 -12 -8 -3 2 10 13 13 13
7 8 7 7 9 12 15 15 14 14 15 19 21 23 24 20 16 13 13 13 14 15 16 16 15 15 15 15 15 16 17 18 20 21 23 23 23 23 23 23 22 21 19 19 19 19 20 20 19 18 18 18 18 18 18 18 18 18 18 17 16 16 16 15 14 13 14 16 18 18 16 17 24 29 26 2 -14 -23 -26 -19 -11 -2 5 10 10 9
6 5 3 1 3 8 14 14 13 12 12 13 15 16 19 21 21 19 15 12 12 14 16 16 16 16 15 15 15 16 17 18 19 20 22 22 22 22 22 22 21 21 20 19 19 19 19 19 18 18 18 19 19 19 19 18 18 17 17 17 17 17 18 18 17 16 15 16 17 17 17 17 23 28 30 11 -6 -20 -27 -24 -16 -8 -1 6 8 7
5 4 1 -3 -1 2 7 8 12 15 15 15 15 13 11 14 19 21 20 17 15 14 15 16 16 15 14 14 14 15 16 17 18 19 19 20 21 22 22 22 21 21 20 19 19 18 17 17 17 17 17 18 19 20 20 20 19 18 17 17 17 17 17 19 19 19 18 17 17 17 17 17 20 25 32 21 4 -12 -22 -23 -18 -11 -6 1 5 7
3 1 0 -1 -0 3 5 7 12 17 18 19 21 20 15 14 15 17 19 19 18 16 15 15 15 15 14 13 12 13 14 16 17 18 19 20 20 21 21 21 21 20 19 19 18 17 16 16 15 15 16 17 18 19 19 20 20 20 19 18 17 16 17 18 19 21 21 20 19 18 17 17 18 22 29 27 15 -0 -14 -19 -17 -12 -8 -4 1 4
2 1 0 2 5 10 15 18 20 21 19 20 21 22 23 21 18 15 15 16 16 16 16 15 14 13 14 13 12 12 13 14 15 17 19 19 20 21 22 21 20 20 19 18 17 16 15 15 15 15 15 16 16 17 17 18 19 20 20 19 18 18 17 18 19 21 22 21 20 20 19 18 18 19 24 29 25 14 -2 -11 -14 -12 -9 -5 -1 0
-2 0 4 10 15 20 23 24 23 22 20 18 18 19 22 22 20 17 16 15 15 15 16 16 15 14 14 13 13 13 13 14 15 16 16 17 18 20 22 21 20 19 19 18 16 15 15 15 15 14 15 16 16 17 17 17 17 18 19 19 19 19 19 19 19 20 21 21 20 20 20 20 19 18 20 27 29 24 11 -1 -7 -9 -11 -5 -1 2
4 9 16 21 24 25 23 21 19 18 17 17 17 19 21 20 19 18 17 16 16 15 14 15 16 16 15 13 13 13 14 14 15 16 16 15 17 19 21 20 19 18 18 17 16 15 15 15 14 14 15 15 16 17 18 17 17 17 17 18 18 19 19 19 19 20 20 20 19 19 20 21 20 18 17 22 27 28 22 9 -0 -5 -7 -4 1 6
20 24 24 23 21 18 15 15 15 16 17 16 17 18 19 18 17 16 15 16 16 15 14 15 16 17 16 14 14 14 14 15 15 15 16 16 17 19 20 20 19 18 17 16 15 15 15 14 14 14 14 15 15 17 18 18 18 18 17 17 17 18 18 19 19 19 19 19 19 18 19 20 20 18 16 18 24 28 29 17 6 -2 -5 -4 1 8
24 22 19 16 14 12 12 12 13 14 17 16 15 14 14 14 14 14 13 14 14 14 13 14 17 18 19 17 16 16 15 16 16 16 16 15 17 19 20 19 18 17 17 15 14 15 15 15 14 13 13 13 15 16 17 18 19 18 18 17 17 17 18 18 18 18 19 18 18 17 18 19 19 18 15 16 21 26 29 22 11 2 -4 -4 0 7
18 16 14 13 12 12 13 13 13 14 14 14 14 14 12 11 12 12 12 13 14 13 13 13 15 18 22 18 15 14 16 17 18 18 16 14 15 18 21 18 17 16 16 15 14 14 14 14 14 13 13 13 14 15 17 18 18 19 18 18 17 17 17 17 18 18 18 18 18 17 17 18 18 17 14 15 18 23 28 24 16 6 -1 -3 0 6
15 14 14 13 13 13 14 14 14 14 14 14 16 16 14 13 12 12 12 12 12 13 15 15 15 17 19 17 13 11 13 17 18 18 16 14 15 17 20 18 16 15 14 13 14 14 14 13 13 13 13 13 14 15 16 17 18 19 19 18 17 17 16 17 17 18 18 18 18 18 17 18 17 16 14 14 17 21 26 25 18 8 -2 -3 -0 5
15 15 15 15 14 14 14 13 13 13 14 16 16 16 14 14 13 13 12 12 12 12 14 15 16 17 19 17 15 13 13 16 17 16 14 14 14 16 19 19 17 15 13 12 13 14 14 13 13 13 13 13 14 15 16 17 18 19 19 18 17 17 16 16 17 18 18 19 18 18 17 17 16 15 13 14 16 19 24 25 20 10 -3 -6 -3 2
17 17 16 16 15 15 14 13 13 13 14 15 14 13 12 14 14 13 13 13 13 13 13 13 14 15 20 20 16 13 14 17 17 17 17 14 12 13 17 18 17 15 13 12 13 14 14 13 13 13 14 14 14 15 16 17 18 19 19 19 18 17 16 16 17 17 18 19 19 18 18 17 16 15 12 13 15 18 21 25 21 12 -2 -5 -3 0
19 20 21 18 16 14 14 14 14 14 13 12 10 10 12 14 15 16 16 15 14 13 13 12 14 18 21 18 15 13 14 14 16 18 21 15 13 13 16 17 16 14 12 12 14 14 14 13 13 13 13 14 14 15 16 17 18 19 19 19 18 17 16 16 16 17 18 19 19 19 19 18 16 14 12 12 14 16 19 23 22 14 1 -4 -5 -5
19 22 23 20 18 17 15 15 14 13 10 8 8 10 13 16 18 20 19 16 14 13 13 14 16 17 15 15 14 13 13 14 16 18 19 15 12 13 16 17 16 13 10 13 14 15 14 13 13 13 13 14 14 15 16 17 18 19 19 19 18 17 16 16 16 16 17 18 19 20 20 19 17 14 12 12 13 15 17 21 22 18 7 -3 -8 -12
19 21 22 21 20 18 17 16 15 14 12 10 11 13 16 16 16 16 16 14 13 13 14 16 16 14 12 14 13 12 12 15 17 18 16 13 12 12 15 17 15 12 10 12 14 15 14 13 12 12 13 13 14 15 16 17 19 19 20 19 18 17 16 16 16 16 16 17 19 20 21 20 18 15 11 11 13 14 16 19 21 20 11 2 -7 -13
23 23 23 22 21 20 20 19 18 16 14 12 11 11 12 12 12 13 13 13 13 13 15 16 16 15 15 15 14 12 12 15 17 17 16 15 13 12 13 15 14 12 12 13 14 15 14 13 12 12 13 13 14 15 16 17 19 20 20 20 19 18 16 16 16 16 16 17 18 19 21 21 18 15 11 11 12 14 15 17 20 21 17 6 -3 -10
25 25 24 23 22 22 22 22 22 22 21 18 15 12 10 11 12 13 13 12 12 14 17 16 16 15 17 17 15 14 14 16 16 16 16 18 16 13 11 14 13 12 12 14 14 14 13 12 12 13 13 13 14 15 16 17 18 20 21 21 20 18 17 16 16 16 16 16 17 18 20 21 19 16 12 11 13 14 14 15 18 22 22 11 1 -6
25 24 24 24 24 24 25 25 25 25 23 20 17 15 13 13 13 13 11 11 12 14 15 15 15 16 16 15 14 14 15 16 16 16 17 19 16 12 10 14 14 12 12 13 13 13 13 12 12 12 12 13 14 15 15 16 18 19 21 21 21 19 18 17 16 16 16 16 17 18 20 21 20 17 12 12 13 14 13 13 17 21 24 15 4 -4
23 23 23 23 24 25 25 26 26 25 23 21 19 17 15 14 13 12 11 12 13 13 13 13 14 15 15 14 14 15 15 14 14 17 20 18 13 10 10 14 14 13 12 12 13 13 12 12 12 12 12 13 14 15 15 16 17 18 20 21 21 20 19 17 17 16 16 16 16 17 19 21 20 17 13 12 13 14 13 12 14 19 24 19 8 -1
20 20 20 20 21 21 22 24 25 25 24 22 20 18 14 13 12 12 12 13 13 13 10 11 12 13 14 15 15 15 14 12 13 17 21 17 11 8 11 14 14 13 12 13 14 13 10 11 11 12 13 14 14 15 15 15 16 18 20 21 22 21 20 18 17 17 16 16 16 17 18 20 20 17 13 13 13 13 12 11 13 18 21 20 12 4
17 16 17 18 18 18 18 20 21 22 23 23 21 19 15 13 12 12 12 12 12 12 11 11 11 13 16 17 16 15 14 12 14 17 20 14 11 10 13 12 12 13 14 16 15 13 10 11 11 12 13 14 14 15 15 16 16 17 19 21 22 22 20 19 18 17 17 17 16 17 18 20 20 18 14 14 14 13 10 10 14 19 20 20 14 8
14 13 14 16 17 17 17 17 18 19 20 20 20 18 16 15 13 12 12 11 11 11 11 11 12 14 17 18 17 16 17 14 15 17 17 12 11 12 13 11 12 13 13 15 16 15 13 13 13 13 13 14 14 15 16 16 16 17 19 21 22 21 20 19 19 18 18 17 17 17 18 20 20 18 15 15 15 12 5 7 14 20 21 21 16 11
14 13 12 14 17 18 19 19 18 17 17 17 16 16 15 14 13 12 11 11 11 12 13 12 13 14 16 15 15 15 17 15 16 17 16 12 11 11 11 11 12 13 14 12 11 12 14 15 17 17 15 14 14 15 16 16 16 17 18 20 21 21 20 20 19 19 19 18 17 17 18 20 20 18 16 16 14 8 -2 3 12 20 22 20 17 13
15 13 12 14 17 19 21 21 20 18 16 15 14 13 13 12 12 11 12 11 12 13 16 16 16 17 17 16 15 15 17 13 14 16 16 13 11 11 12 11 11 13 16 12 10 9 9 11 15 18 17 15 15 16 17 17 17 17 18 19 20 21 21 20 19 19 20 19 19 18 18 20 19 18 16 17 12 3 -8 -0 10 19 24 22 20 17
15 12 10 11 14 17 20 20 21 20 19 17 16 14 14 13 13 13 13 14 15 16 18 19 19 19 20 19 19 19 17 12 11 13 14 12 10 11 13 12 12 13 15 15 13 11 8 9 11 14 17 16 16 16 18 18 17 16 17 18 19 20 20 21 20 20 20 20 19 19 19 21 20 18 17 18 11 0 -10 -3 8 18 27 24 20 17
16 14 11 12 14 17 20 21 22 23 23 23 22 21 20 19 19 18 18 19 20 21 21 21 21 20 20 20 21 21 18 12 9 10 12 10 11 12 12 12 13 14 14 14 14 14 12 11 11 12 15 16 16 17 19 19 18 17 16 17 18 18 18 20 21 21 22 21 20 20 20 22 21 18 14 18 12 0 -10 -6 4 16 25 19 14 11
18 17 15 14 15 17 19 20 21 22 24 26 27 28 27 26 25 24 23 23 23 24 24 24 23 22 20 20 21 20 16 11 9 9 11 11 13 14 12 13 15 15 14 14 14 13 13 14 13 12 13 15 16 18 20 20 20 18 16 16 16 16 15 17 19 21 24 22 22 23 22 22 21 18 14 18 13 2 -11 -9 1 13 17 12 11 12
19 19 18 17 16 15 15 14 13 14 17 20 22 24 24 24 24 24 24 23 23 23 23 22 22 22 21 21 21 20 16 12 12 13 14 14 14 14 13 15 16 15 13 14 14 14 14 15 15 13 12 13 15 18 22 23 22 19 17 15 15 15 15 16 18 20 23 23 24 25 26 24 22 19 15 16 12 3 -13 -13 1 14 12 10 14 18
19 20 21 20 18 16 14 12 10 10 12 15 16 17 19 20 21 21 21 20 19 19 19 18 18 18 19 20 20 20 17 14 13 14 15 15 15 15 15 16 16 15 13 12 13 14 15 16 16 16 15 14 14 16 21 26 25 22 18 15 14 14 14 15 18 21 23 20 21 24 28 26 24 20 13 15 13 5 -12 -9 4 17 16 14 15 15
18 20 22 22 21 19 17 14 12 12 15 14 13 13 15 17 18 17 17 16 15 15 16 16 15 15 15 16 16 16 14 12 11 11 12 14 15 16 17 18 17 16 15 14 12 12 12 14 14 15 18 20 19 18 19 23 24 23 21 16 14 13 12 14 18 22 25 21 20 23 28 29 27 22 15 15 14 10 -3 -2 7 16 17 17 16 13
17 19 22 23 23 22 20 17 17 17 17 14 12 12 11 14 15 15 14 13 14 15 16 15 14 13 12 11 11 11 10 10 10 11 12 14 16 18 19 19 18 17 17 15 14 12 11 12 12 13 15 19 21 22 23 23 23 23 22 17 14 12 11 14 18 21 25 22 21 23 29 31 30 25 17 13 14 13 2 -2 3 10 15 19 20 17
15 17 20 23 25 25 24 22 20 19 17 15 13 12 13 15 15 14 13 15 17 19 17 16 15 14 12 11 10 9 9 10 12 14 16 17 19 20 20 20 20 19 17 16 14 13 12 12 14 15 16 18 20 21 22 22 24 25 24 19 14 9 8 13 17 22 26 23 21 22 26 32 33 28 19 12 11 11 4 -3 -3 2 9 17 22 23
13 14 18 23 26 28 27 25 23 22 20 16 13 12 11 11 9 8 8 13 17 19 17 19 19 17 12 10 9 7 7 9 10 13 15 17 18 19 20 20 20 19 18 16 14 13 12 13 14 16 18 20 23 23 21 20 24 26 23 18 13 9 6 10 16 22 26 26 24 21 20 29 34 33 24 13 10 9 7 -5 -6 -1 5 13 20 24
12 12 14 20 25 29 30 28 26 24 22 19 17 14 11 11 9 5 1 2 5 9 10 12 16 18 12 8 5 3 1 3 4 7 9 11 14 16 17 18 18 18 17 16 14 12 12 13 14 14 15 17 20 22 22 25 26 26 21 17 12 9 7 11 17 22 24 25 25 23 17 27 35 36 28 15 10 9 9 -2 -5 -2 3 6 11 13
13 11 12 15 20 25 30 30 29 27 25 25 24 23 21 20 19 16 11 6 5 4 3 1 2 4 5 5 5 5 3 3 3 4 5 6 8 11 13 14 15 15 15 15 14 12 10 12 14 14 14 17 19 19 19 23 27 28 24 17 12 9 8 13 19 25 26 23 24 25 22 23 28 32 30 18 9 6 8 0 -1 1 6 6 10 13
15 12 10 11 13 17 22 25 26 26 25 26 26 26 27 28 31 33 33 26 18 10 6 3 0 -1 2 6 8 9 9 8 7 7 7 6 6 8 10 11 11 11 12 13 13 12 10 10 12 13 13 16 19 20 20 22 26 28 27 19 13 9 8 11 18 26 29 24 23 25 28 25 27 31 33 27 15 5 8 2 3 6 6 8 17 26
17 13 11 9 8 9 11 16 20 23 24 25 25 25 25 29 34 37 36 28 20 14 12 13 11 11 14 16 17 17 16 16 14 12 10 9 7 7 9 10 10 10 10 11 12 12 11 11 12 12 12 14 16 18 20 23 26 28 29 21 13 9 9 11 18 25 28 26 23 23 28 26 29 32 35 31 21 9 3 2 3 2 -1 3 16 30
21 17 13 11 8 6 5 7 12 17 22 24 26 26 26 28 30 30 24 16 8 3 3 5 5 7 13 14 15 16 19 21 22 21 18 14 10 8 7 9 10 12 12 12 12 12 12 12 13 13 13 13 15 18 23 23 24 25 30 20 12 7 9 12 17 22 23 23 23 24 28 29 29 30 32 28 21 11 -0 0 -1 -4 -10 -6 9 25
23 21 18 14 12 9 6 4 5 9 15 20 25 28 26 24 23 22 19 11 2 -4 -5 -3 -1 2 5 7 8 10 14 19 24 27 28 23 18 13 10 10 11 13 14 15 15 14 13 13 13 13 13 10 11 16 26 28 27 26 28 18 10 6 8 12 16 19 21 21 20 21 26 30 32 32 34 28 21 14 5 3 1 -5 -15 -12 1 16
23 23 22 19 17 13 10 6 4 4 7 14 21 26 26 20 16 14 14 10 4 -1 -2 0 2 4 6 8 9 11 15 21 26 29 30 27 25 22 20 19 19 18 18 17 17 16 15 14 13 11 9 6 8 13 23 28 30 30 28 17 9 5 8 12 15 17 19 21 20 19 23 26 29 32 33 30 25 19 11 6 3 -2 -15 -13 -4 7
20 22 23 23 21 19 16 11 7 4 4 7 13 18 20 16 12 10 11 9 6 3 2 3 6 8 10 11 12 14 18 24 27 28 26 22 20 18 18 21 24 27 27 24 20 17 15 14 13 10 5 3 6 12 21 28 32 31 27 15 8 6 9 13 15 15 17 19 20 20 21 24 27 29 32 29 25 18 12 7 6 2 -10 -7 -1 5
18 20 22 23 23 23 22 18 14 10 7 5 6 9 13 14 14 12 10 7 5 3 3 5 7 8 9 10 11 14 18 20 21 21 20 16 12 7 4 6 13 21 27 28 26 22 18 17 15 10 4 2 5 11 20 28 33 32 25 13 7 6 12 15 16 15 15 18 20 21 21 23 25 27 31 32 25 17 11 10 9 4 -4 1 6 10
Height
2842 2841 2841 2840 2839 2839 2838 2839 2838 2838 2837 2837 2837 2837 2836 2836 2835 2835 2834 2834 2833 2833 2833 2833 2833 2834 2834 2834 2835 2835 2835 2836 2836 2837 2838 2839 2840 2842 2843 2845 2847 2848 2850 2851 2853 2855 2857 2860 2863 2865 2868 2871 2874 2877 2879 2882 2885 2888 2890 2893 2895 2898 2902 2906 2910 2914 2919 2923 2928 2932 2938 2943 2948 2953 2957 2962 2966 2970 2974 2977 2981 2985 2989 2993 2997 3001
2841 2840 2839 2839 2838 2837 2836 2836 2836 2836 2835 2835 2835 2835 2834 2834 2833 2833 2832 2832 2831 2831 2830 2830 2831 2831 2832 2833 2833 2834 2834 2834 2834 2835 2836 2837 2838 2839 2841 2843 2844 2846 2847 2849 2851 2853 2855 2857 2860 2863 2865 2868 2871 2874 2877 2879 2882 2884 2887 2889 2892 2896 2900 2904 2908 2912 2916 2920 2924 2929 2934 2940 2945 2950 2954 2959 2963 2968 2971 2975 2979 2982 2986 2990 2994 2999
2839 2838 2837 2837 2836 2835 2834 2834 2834 2834 2833 2833 2833 2832 2832 2831 2831 2830 2830 2830 2829 2829 2829 2828 2828 2829 2829 2830 2831 2831 2832 2832 2833 2834 2834 2835 2836 2838 2839 2840 2842 2843 2845 2847 2849 2851 2853 2855 2858 2860 2863 2866 2869 2872 2875 2877 2879 2882 2884 2887 2890 2894 2898 2902 2906 2910 2913 2917 2921 2926 2931 2936 2942 2947 2952 2956 2961 2965 2969 2972 2976 2980 2984 2988 2992 2997
2838 2837 2836 2835 2834 2833 2833 2833 2832 2832 2832 2831 2830 2830 2829 2829 2828 2828 2828 2827 2827 2827 2826 2826 2826 2826 2827 2828 2828 2829 2829 2830 2831 2831 2832 2833 2834 2835 2837 2838 2840 2841 2843 2845 2847 2849 2851 2853 2856 2858 2861 2864 2867 2870 2873 2875 2878 2880 2883 2885 2888 2892 2896 2900 2904 2908 2911 2915 2919 2924 2928 2933 2938 2943 2949 2954 2959 2963 2967 2971 2974 2978 2982 2986 2990 2994
2837 2836 2834 2833 2832 2832 2831 2831 2830 2830 2829 2829 2828 2827 2827 2826 2825 2825 2825 2824 2824 2824 2824 2824 2824 2824 2824 2825 2825 2826 2827 2827 2828 2829 2830 2831 2832 2833 2835 2836 2838 2839 2841 2843 2844 2846 2849 2851 2853 2855 2858 2861 2864 2867 2870 2873 2876 2878 2881 2883 2886 2889 2893 2898 2902 2905 2909 2913 2917 2921 2925 2930 2934 2940 2946 2951 2957 2961 2965 2969 2973 2976 2979 2983 2987 2991
2835 2834 2833 2832 2831 2830 2829 2829 2829 2828 2827 2826 2825 2824 2824 2823 2823 2822 2822 2822 2822 2822 2822 2822 2822 2822 2822 2823 2823 2824 2824 2824 2825 2826 2827 2828 2829 2831 2832 2834 2835 2837 2839 2840 2842 2843 2845 2847 2849 2851 2853 2856 2859 2862 2865 2869 2872 2875 2878 2880 2883 2886 2890 2894 2899 2903 2907 2911 2914 2918 2922 2927 2931 2937 2943 2949 2954 2959 2963 2967 2971 2974 2977 2981 2985 2989
2833 2833 2832 2830 2829 2828 2827 2826 2826 2825 2824 2823 2822 2821 2821 2820 2820 2819 2819 2819 2819 2819 2819 2819 2819 2820 2820 2820 2821 2821 2822 2822 2823 2824 2824 2825 2827 2828 2829 2831 2832 2834 2835 2837 2838 2840 2841 2843 2844 2846 2849 2851 2854 2857 2860 2864 2867 2871 2874 2876 2879 2883 2886 2891 2895 2900 2904 2908 2912 2915 2919 2924 2929 2934 2939 2945 2951 2955 2960 2964 2968 2972 2975 2979 2982 2986
2831 2830 2830 2829 2827 2826 2824 2824 2824 2823 2822 2820 2819 2818 2818 2817 2817 2817 2817 2817 2817 2817 2817 2817 2818 2818 2818 2818 2818 2819 2819 2820 2820 2821 2822 2823 2824 2825 2827 2828 2829 2831 2832 2834 2835 2836 2838 2840 2842 2844 2847 2849 2852 2855 2858 2861 2864 2867 2870 2873 2876 2879 2884 2888 2892 2897 2901 2905 2909 2913 2917 2921 2925 2931 2936 2942 2947 2952 2957 2961 2965 2969 2972 2976 2979 2984
2829 2828 2827 2826 2825 2824 2822 2821 2821 2821 2820 2818 2817 2816 2815 2814 2814 2814 2814 2814 2814 2815 2815 2815 2815 2816 2816 2816 2816 2816 2817 2817 2818 2819 2819 2820 2821 2823 2824 2825 2826 2828 2829 2830 2832 2834 2836 2838 2841 2844 2847 2849 2852 2855 2858 2860 2863 2865 2868 2871 2874 2878 2882 2886 2890 2895 2899 2903 2907 2911 2914 2918 2922 2927 2933 2938 2944 2949 2953 2957 2961 2965 2969 2973 2977 2981
2827 2825 2824 2823 2822 2821 2820 2819 2818 2818 2818 2816 2815 2814 2813 2812 2811 2811 2811 2812 2812 2813 2813 2813 2813 2814 2814 2814 2814 2814 2814 2815 2816 2816 2817 2818 2819 2820 2821 2822 2823 2825 2827 2828 2830 2832 2835 2837 2840 2843 2845 2848 2851 2854 2856 2859 2861 2864 2867 2870 2873 2877 2880 2884 2888 2893 2897 2901 2905 2908 2912 2915 2919 2924 2929 2934 2940 2945 2949 2954 2958 2962 2966 2970 2974 2978
2824 2823 2822 2821 2820 2819 2818 2817 2816 2815 2815 2814 2813 2812 2812 2811 2809 2809 2808 2809 2810 2810 2810 2810 2811 2811 2812 2812 2812 2812 2812 2813 2813 2814 2815 2816 2817 2818 2819 2820 2821 2823 2824 2826 2829 2831 2833 2835 2838 2840 2843 2846 2849 2851 2854 2857 2859 2862 2865 2868 2871 2875 2878 2882 2886 2890 2894 2898 2902 2905 2909 2913 2917 2921 2926 2931 2936 2941 2946 2951 2955 2959 2964 2968 2972 2975
2824 2823 2822 2820 2819 2817 2816 2815 2814 2814 2813 2812 2811 2810 2810 2809 2808 2807 2806 2806 2807 2808 2808 2808 2809 2809 2810 2810 2810 2810 2810 2810 2811 2812 2813 2814 2814 2815 2816 2818 2819 2821 2823 2824 2826 2829 2831 2833 2835 2838 2840 2843 2845 2848 2851 2854 2857 2860 2863 2866 2869 2872 2876 2879 2883 2887 2891 2895 2899 2903 2906 2910 2914 2919 2924 2928 2933 2938 2943 2948 2952 2957 2961 2965 2969 2973
2824 2822 2820 2819 2817 2816 2815 2814 2813 2812 2811 2810 2809 2808 2807 2807 2806 2805 2804 2804 2805 2805 2806 2806 2807 2808 2808 2808 2808 2808 2808 2809 2809 2810 2811 2812 2813 2814 2814 2816 2817 2819 2820 2822 2824 2826 2829 2830 2833 2835 2838 2840 2843 2846 2848 2851 2854 2857 2860 2863 2866 2869 2873 2876 2879 2884 2888 2892 2896 2899 2904 2908 2912 2916 2920 2925 2930 2935 2940 2945 2949 2954 2959 2963 2967 2970
2823 2821 2819 2817 2816 2814 2814 2812 2811 2809 2809 2808 2807 2806 2805 2805 2804 2804 2803 2803 2803 2803 2803 2804 2805 2806 2806 2806 2806 2806 2806 2806 2807 2808 2809 2810 2810 2811 2812 2814 2815 2817 2818 2820 2823 2825 2827 2829 2831 2833 2835 2838 2841 2843 2846 2849 2851 2854 2857 2860 2863 2866 2869 2873 2876 2880 2884 2888 2892 2896 2900 2905 2909 2913 2918 2922 2927 2932 2937 2942 2947 2951 2956 2960 2964 2968
2821 2819 2817 2815 2814 2812 2811 2810 2809 2807 2807 2806 2805 2804 2804 2803 2803 2802 2801 2801 2801 2801 2801 2801 2803 2804 2804 2804 2804 2804 2804 2804 2805 2806 2807 2808 2809 2809 2810 2811 2813 2815 2817 2819 2821 2823 2824 2826 2829 2831 2833 2836 2839 2841 2844 2846 2849 2852 2854 2857 2860 2863 2866 2869 2873 2876 2880 2884 2889 2893 2897 2901 2906 2910 2915 2919 2924 2929 2934 2939 2944 2949 2953 2958 2962 2965
2819 2817 2815 2813 2811 2810 2809 2808 2807 2805 2804 2804 2803 2802 2802 2801 2801 2800 2799 2799 2799 2799 2799 2799 2800 2801 2802 2803 2803 2802 2802 2802 2803 2804 2804 2806 2807 2808 2809 2810 2811 2813 2815 2817 2819 2821 2823 2825 2827 2829 2831 2834 2836 2839 2841 2844 2847 2849 2852 2854 2857 2860 2863 2866 2869 2873 2877 2881 2885 2889 2894 2898 2903 2907 2912 2916 2921 2925 2930 2935 2940 2946 2950 2955 2959 2963
2815 2814 2812 2810 2809 2807 2807 2806 2805 2804 2803 2802 2801 2801 2800 2799 2799 2799 2798 2797 2797 2797 2797 2797 2798 2799 2800 2801 2801 2800 2800 2800 2800 2802 2803 2804 2805 2806 2807 2808 2809 2811 2813 2815 2817 2819 2821 2823 2825 2827 2829 2832 2834 2836 2839 2841 2844 2846 2849 2852 2854 2857 2860 2863 2866 2870 2874 2878 2882 2886 2891 2895 2900 2904 2909 2913 2918 2922 2927 2932 2937 2943 2948 2952 2956 2960
2812 2811 2809 2808 2806 2805 2804 2804 2803 2802 2801 2800 2799 2799 2799 2798 2797 2797 2796 2795 2795 2795 2795 2795 2796 2797 2798 2799 2799 2799 2798 2798 2799 2800 2801 2803 2804 2804 2805 2806 2807 2809 2811 2813 2815 2818 2819 2821 2823 2825 2827 2829 2831 2834 2836 2839 2841 2844 2846 2849 2852 2855 2858 2861 2864 2868 2871 2875 2879 2884 2888 2893 2897 2901 2906 2910 2915 2919 2924 2929 2934 2939 2945 2949 2954 2958
2810 2809 2808 2806 2804 2803 2802 2802 2801 2800 2799 2799 2798 2797 2797 2796 2796 2795 2794 2794 2793 2793 2793 2794 2794 2795 2796 2797 2797 2797 2797 2796 2797 2798 2799 2801 2802 2803 2804 2804 2806 2808 2810 2812 2814 2816 2818 2819 2821 2823 2825 2827 2829 2831 2834 2836 2839 2841 2844 2847 2850 2853 2856 2859 2862 2865 2869 2873 2877 2881 2885 2890 2894 2899 2903 2908 2912 2916 2921 2926 2931 2936 2942 2947 2951 2955
2808 2807 2806 2804 2803 2801 2800 2799 2799 2798 2797 2797 2796 2795 2795 2794 2794 2793 2792 2792 2792 2792 2792 2792 2793 2794 2794 2795 2795 2796 2795 2794 2795 2796 2797 2799 2801 2802 2802 2803 2804 2806 2809 2810 2812 2814 2816 2817 2819 2821 2823 2825 2827 2829 2832 2834 2837 2839 2842 2845 2848 2851 2854 2857 2860 2863 2867 2870 2874 2879 2883 2887 2892 2896 2900 2904 2909 2914 2918 2923 2928 2933 2938 2943 2948 2952
2805 2804 2803 2802 2800 2799 2797 2797 2797 2796 2796 2795 2794 2793 2793 2792 2791 2791 2791 2790 2790 2790 2790 2791 2791 2792 2793 2793 2794 2794 2794 2793 2793 2794 2795 2797 2799 2800 2801 2801 2802 2804 2806 2809 2810 2812 2814 2816 2818 2820 2822 2824 2826 2828 2830 2832 2835 2838 2840 2843 2846 2849 2852 2855 2858 2861 2864 2868 2872 2876 2880 2885 2889 2893 2897 2902 2906 2911 2915 2920 2925 2930 2935 2940 2945 2950
2803 2801 2800 2799 2798 2796 2795 2794 2794 2794 2794 2793 2792 2791 2790 2790 2789 2789 2789 2789 2789 2789 2789 2789 2790 2790 2791 2791 2791 2792 2792 2791 2792 2792 2794 2796 2798 2799 2799 2799 2801 2803 2805 2807 2809 2810 2812 2814 2816 2818 2820 2822 2824 2826 2828 2830 2833 2835 2838 2841 2844 2846 2849 2853 2856 2859 2862 2866 2870 2874 2878 2882 2886 2890 2894 2899 2904 2908 2913 2918 2923 2928 2933 2938 2943 2947
2801 2799 2797 2796 2795 2794 2793 2793 2792 2792 2792 2791 2790 2789 2788 2788 2787 2787 2787 2788 2788 2788 2788 2788 2788 2789 2789 2789 2790 2790 2790 2790 2790 2791 2792 2794 2796 2798 2798 2798 2799 2801 2804 2805 2807 2809 2811 2813 2814 2816 2818 2820 2822 2824 2826 2828 2831 2833 2836 2839 2841 2844 2847 2850 2854 2857 2860 2864 2868 2872 2876 2880 2884 2888 2892 2896 2901 2905 2910 2915 2920 2925 2930 2935 2940 2944
2799 2797 2795 2794 2793 2792 2791 2790 2790 2790 2790 2790 2789 2787 2786 2786 2786 2786 2786 2786 2786 2786 2786 2786 2786 2787 2788 2788 2788 2789 2789 2789 2789 2790 2791 2792 2794 2796 2797 2797 2798 2799 2802 2804 2805 2807 2809 2811 2813 2815 2817 2819 2820 2822 2824 2826 2829 2831 2834 2837 2839 2842 2845 2848 2851 2855 2858 2862 2865 2869 2874 2878 2882 2886 2890 2894 2899 2903 2908 2913 2917 2922 2927 2932 2937 2941
2797 2795 2793 2791 2790 2789 2789 2789 2789 2789 2790 2790 2789 2787 2785 2784 2784 2784 2785 2785 2785 2785 2784 2785 2785 2786 2786 2787 2787 2787 2788 2788 2788 2788 2789 2790 2793 2795 2796 2796 2796 2798 2800 2802 2804 2805 2807 2809 2811 2813 2815 2817 2819 2820 2822 2824 2826 2829 2832 2834 2837 2840 2843 2846 2849 2853 2856 2859 2863 2867 2871 2875 2879 2884 2888 2892 2896 2901 2906 2910 2915 2919 2924 2929 2934 2938
2795 2793 2791 2789 2789 2788 2788 2788 2788 2788 2788 2786 2785 2784 2784 2784 2783 2783 2783 2784 2784 2784 2783 2783 2784 2784 2785 2785 2785 2786 2786 2786 2786 2787 2788 2789 2791 2793 2794 2794 2795 2796 2799 2801 2803 2804 2806 2808 2809 2811 2813 2815 2816 2818 2820 2822 2824 2827 2830 2832 2835 2838 2840 2844 2847 2850 2854 2857 2861 2864 2869 2873 2877 2881 2885 2890 2894 2899 2904 2908 2913 2917 2922 2926 2931 2935
2793 2791 2790 2788 2787 2786 2785 2784 2784 2784 2784 2784 2784 2783 2783 2782 2782 2782 2782 2782 2782 2782 2782 2782 2782 2783 2783 2784 2784 2784 2785 2785 2785 2786 2786 2787 2789 2791 2793 2793 2794 2795 2797 2799 2801 2802 2804 2806 2808 2809 2811 2813 2814 2816 2818 2820 2822 2825 2827 2829 2832 2834 2837 2841 2844 2847 2851 2854 2858 2862 2866 2870 2874 2879 2883 2888 2892 2897 2902 2906 2911 2915 2919 2923 2928 2932
2792 2790 2788 2787 2785 2784 2783 2783 2783 2782 2782 2782 2782 2782 2781 2781 2780 2780 2781 2781 2781 2780 2780 2780 2781 2781 2782 2782 2782 2783 2783 2784 2784 2784 2785 2786 2787 2789 2791 2792 2792 2794 2795 2797 2799 2800 2802 2804 2806 2807 2809 2810 2812 2814 2816 2818 2820 2822 2824 2826 2829 2832 2835 2838 2841 2845 2849 2852 2856 2859 2864 2868 2872 2876 2881 2885 2890 2895 2900 2905 2909 2913 2917 2921 2925 2930
2790 2789 2787 2785 2784 2783 2782 2782 2781 2781 2781 2780 2780 2780 2780 2779 2779 2779 2779 2779 2779 2779 2779 2779 2779 2780 2780 2780 2781 2782 2782 2783 2783 2783 2783 2784 2786 2788 2790 2790 2791 2792 2794 2795 2797 2799 2801 2803 2804 2806 2807 2809 2811 2813 2814 2816 2818 2819 2822 2824 2827 2830 2833 2837 2840 2843 2846 2850 2854 2857 2861 2865 2870 2874 2879 2883 2888 2893 2898 2903 2907 2910 2914 2919 2923 2928
2789 2788 2786 2785 2784 2782 2781 2780 2780 2780 2779 2779 2779 2779 2779 2778 2778 2778 2778 2778 2778 2778 2778 2778 2778 2779 2779 2779 2779 2780 2781 2782 2782 2782 2782 2783 2785 2787 2788 2789 2790 2791 2792 2794 2795 2797 2799 2801 2802 2804 2805 2807 2809 2811 2812 2814 2816 2818 2820 2823 2826 2829 2832 2835 2838 2841 2844 2848 2851 2855 2859 2863 2867 2872 2876 2881 2886 2891 2896 2901 2904 2908 2912 2916 2921 2925
2788 2787 2785 2784 2783 2782 2781 2780 2779 2779 2778 2778 2778 2777 2777 2777 2777 2777 2777 2777 2777 2777 2777 2777 2777 2777 2777 2778 2778 2779 2780 2781 2781 2780 2781 2782 2783 2785 2787 2787 2789 2789 2791 2792 2794 2795 2797 2799 2800 2802 2804 2805 2807 2809 2811 2812 2814 2816 2819 2821 2824 2827 2830 2833 2836 2839 2842 2845 2849 2853 2856 2861 2865 2869 2874 2879 2884 2889 2893 2898 2902 2906 2910 2914 2918 2923
2787 2786 2784 2784 2782 2781 2780 2779 2779 2778 2778 2777 2777 2776 2776 2776 2776 2776 2776 2775 2775 2775 2775 2775 2776 2776 2776 2776 2777 2778 2779 2780 2779 2779 2779 2780 2782 2784 2785 2786 2787 2789 2789 2790 2792 2793 2795 2797 2799 2800 2802 2804 2805 2807 2809 2810 2812 2814 2816 2819 2822 2824 2827 2830 2833 2836 2839 2843 2846 2850 2854 2858 2863 2867 2871 2876 2881 2886 2891 2895 2899 2903 2908 2911 2916 2920
2787 2785 2784 2783 2782 2781 2779 2779 2778 2777 2777 2776 2776 2775 2775 2775 2774 2774 2774 2774 2774 2774 2774 2774 2774 2774 2775 2775 2776 2777 2778 2779 2778 2778 2778 2779 2781 2782 2784 2785 2786 2787 2788 2789 2790 2792 2794 2796 2797 2799 2800 2802 2803 2805 2807 2809 2810 2812 2814 2817 2819 2822 2825 2828 2831 2834 2837 2841 2844 2848 2852 2856 2860 2864 2869 2874 2879 2883 2888 2892 2896 2901 2905 2909 2913 2918
2787 2785 2784 2783 2782 2780 2779 2778 2777 2776 2776 2775 2774 2774 2774 2774 2773 2773 2773 2773 2773 2773 2773 2773 2773 2774 2774 2774 2775 2776 2777 2777 2777 2776 2777 2778 2780 2781 2783 2784 2785 2786 2787 2787 2789 2790 2792 2794 2796 2797 2798 2799 2801 2803 2805 2807 2809 2810 2813 2815 2817 2820 2823 2826 2829 2832 2835 2838 2842 2845 2849 2853 2857 2862 2867 2871 2876 2881 2885 2889 2894 2898 2902 2906 2911 2916
2787 2785 2784 2783 2782 2780 2779 2778 2777 2776 2775 2774 2774 2773 2773 2772 2772 2772 2772 2772 2772 2772 2772 2772 2772 2773 2773 2774 2774 2775 2776 2776 2775 2775 2776 2777 2779 2780 2782 2783 2784 2784 2785 2786 2787 2788 2789 2792 2794 2795 2796 2798 2800 2802 2804 2805 2807 2809 2811 2813 2815 2818 2821 2824 2826 2829 2832 2835 2839 2842 2846 2850 2855 2859 2864 2869 2874 2878 2882 2887 2891 2895 2899 2904 2909 2914
2787 2785 2784 2783 2782 2780 2779 2778 2776 2775 2774 2774 2773 2772 2772 2771 2771 2771 2771 2771 2771 2771 2771 2771 2772 2772 2772 2773 2774 2774 2775 2774 2774 2774 2776 2777 2778 2779 2780 2782 2783 2783 2784 2785 2785 2786 2788 2789 2791 2793 2794 2796 2798 2800 2801 2803 2805 2807 2809 2811 2814 2816 2819 2821 2824 2827 2830 2833 2837 2840 2844 2848 2853 2857 2862 2867 2872 2876 2880 2884 2888 2892 2896 2902 2907 2912
2787 2785 2784 2783 2782 2780 2779 2778 2776 2775 2774 2773 2772 2772 2771 2771 2771 2770 2770 2770 2770 2770 2771 2771 2771 2772 2772 2772 2773 2773 2774 2774 2774 2774 2775 2776 2778 2779 2779 2780 2781 2782 2783 2784 2784 2785 2786 2788 2789 2791 2793 2794 2796 2798 2799 2801 2803 2805 2808 2809 2812 2814 2817 2820 2822 2825 2828 2831 2834 2838 2842 2846 2850 2855 2860 2865 2869 2874 2878 2881 2885 2889 2894 2900 2905 2910
2787 2785 2784 2783 2781 2780 2779 2778 2776 2775 2774 2773 2772 2771 2771 2770 2770 2770 2770 2770 2770 2770 2770 2771 2771 2771 2772 2772 2772 2773 2773 2774 2774 2774 2775 2776 2777 2778 2779 2779 2780 2781 2781 2782 2783 2784 2785 2786 2788 2789 2791 2793 2794 2796 2798 2799 2801 2804 2805 2807 2809 2812 2815 2818 2820 2823 2826 2829 2832 2836 2839 2844 2848 2853 2858 2863 2867 2871 2875 2878 2882 2887 2893 2898 2903 2907
2787 2786 2784 2783 2781 2780 2779 2778 2776 2775 2774 2773 2772 2772 2771 2771 2770 2770 2770 2770 2770 2770 2770 2771 2771 2771 2771 2772 2772 2772 2773 2773 2774 2774 2774 2775 2776 2777 2778 2779 2779 2779 2780 2781 2781 2782 2783 2784 2786 2787 2789 2791 2793 2794 2796 2798 2799 2801 2803 2805 2808 2811 2813 2816 2818 2821 2824 2827 2830 2834 2838 2842 2846 2850 2855 2860 2864 2869 2872 2876 2880 2885 2890 2895 2899 2904
2787 2786 2784 2783 2781 2780 2779 2777 2776 2775 2774 2773 2772 2772 2771 2771 2770 2770 2770 2770 2770 2770 2770 2770 2771 2771 2771 2771 2772 2772 2773 2773 2773 2774 2774 2774 2775 2776 2777 2777 2778 2779 2779 2779 2780 2781 2782 2783 2784 2786 2788 2789 2791 2793 2794 2796 2798 2799 2801 2804 2807 2810 2812 2814 2816 2818 2820 2824 2828 2832 2836 2839 2844 2848 2852 2857 2861 2866 2870 2874 2879 2883 2888 2892 2896 2900
2787 2786 2784 2783 2781 2780 2779 2777 2776 2775 2774 2773 2772 2772 2771 2771 2771 2771 2771 2770 2770 2770 2771 2771 2771 2771 2771 2772 2772 2772 2772 2773 2773 2773 2774 2774 2774 2775 2775 2776 2777 2777 2778 2778 2779 2779 2781 2782 2783 2785 2786 2788 2789 2791 2792 2794 2796 2798 2800 2803 2804 2806 2808 2811 2814 2816 2819 2822 2825 2830 2834 2837 2841 2845 2849 2854 2859 2864 2868 2872 2877 2881 2885 2889 2894 2898
2787 2786 2784 2783 2781 2780 2779 2777 2776 2775 2774 2773 2773 2772 2771 2771 2771 2771 2771 2770 2770 2770 2770 2770 2770 2771 2771 2771 2771 2772 2772 2772 2772 2772 2773 2773 2774 2774 2774 2775 2776 2776 2777 2777 2778 2779 2779 2781 2782 2783 2784 2786 2787 2789 2790 2792 2794 2796 2798 2800 2802 2804 2807 2810 2813 2815 2818 2821 2824 2828 2833 2835 2839 2843 2847 2852 2857 2862 2866 2871 2876 2880 2884 2888 2892 2896
2787 2785 2784 2783 2781 2780 2779 2778 2776 2775 2774 2774 2773 2772 2772 2771 2771 2771 2771 2771 2770 2770 2770 2770 2770 2771 2771 2771 2771 2771 2771 2771 2771 2772 2772 2772 2772 2773 2774 2774 2774 2775 2775 2776 2777 2778 2779 2779 2781 2782 2783 2784 2785 2787 2789 2790 2793 2794 2796 2798 2801 2804 2808 2810 2812 2813 2815 2818 2822 2826 2830 2834 2837 2841 2845 2850 2855 2860 2865 2869 2874 2878 2882 2886 2890 2895
2787 2786 2784 2783 2781 2780 2779 2778 2777 2775 2774 2774 2773 2773 2772 2772 2772 2771 2771 2771 2771 2771 2770 2770 2770 2770 2770 2771 2771 2771 2771 2771 2771 2771 2771 2771 2771 2772 2772 2773 2773 2774 2774 2775 2775 2777 2778 2778 2779 2781 2782 2783 2784 2785 2787 2789 2790 2792 2794 2796 2799 2802 2805 2806 2808 2810 2813 2815 2819 2823 2827 2831 2835 2840 2844 2848 2853 2858 2862 2866 2870 2874 2879 2884 2889 2893
2788 2786 2784 2783 2782 2780 2779 2778 2777 2776 2775 2774 2774 2773 2772 2772 2771 2771 2771 2771 2771 2771 2770 2770 2770 2770 2770 2770 2770 2771 2770 2770 2770 2770 2770 2770 2770 2771 2771 2771 2772 2772 2773 2773 2774 2775 2776 2777 2778 2779 2780 2781 2782 2783 2785 2787 2788 2790 2792 2794 2797 2799 2801 2803 2805 2808 2811 2814 2817 2821 2825 2829 2834 2839 2842 2846 2851 2855 2859 2863 2866 2871 2876 2882 2886 2891
2788 2786 2785 2784 2782 2781 2779 2778 2777 2776 2775 2774 2773 2772 2772 2771 2771 2770 2770 2770 2770 2770 2770 2770 2770 2770 2770 2770 2770 2770 2769 2769 2769 2769 2769 2769 2769 2769 2770 2770 2770 2771 2771 2772 2773 2773 2774 2775 2776 2778 2779 2779 2780 2781 2783 2784 2786 2788 2790 2793 2795 2798 2800 2803 2805 2808 2810 2812 2816 2819 2823 2828 2832 2836 2840 2844 2848 2852 2856 2860 2864 2869 2874 2879 2884 2888
2789 2787 2785 2784 2782 2781 2779 2779 2777 2776 2775 2774 2773 2772 2771 2771 2770 2770 2770 2770 2770 2769 2769 2769 2769 2769 2769 2769 2769 2769 2768 2768 2768 2767 2767 2767 2767 2768 2768 2768 2769 2769 2769 2770 2771 2771 2772 2773 2774 2775 2776 2777 2778 2779 2781 2783 2784 2786 2789 2791 2794 2796 2799 2802 2804 2806 2808 2811 2814 2818 2821 2826 2831 2834 2837 2841 2845 2849 2854 2858 2862 2867 2872 2877 2881 2884
2789 2787 2785 2784 2782 2781 2780 2779 2778 2776 2775 2774 2773 2772 2771 2771 2770 2770 2770 2769 2769 2769 2769 2769 2768 2768 2767 2767 2767 2766 2766 2766 2766 2765 2765 2765 2765 2766 2766 2766 2767 2767 2767 2768 2768 2769 2770 2771 2772 2773 2774 2774 2775 2777 2779 2781 2783 2784 2787 2789 2791 2794 2796 2799 2801 2803 2806 2809 2812 2816 2819 2824 2828 2831 2835 2839 2843 2848 2852 2856 2860 2865 2870 2875 2879 2882
2789 2787 2785 2784 2782 2781 2780 2779 2778 2777 2776 2775 2774 2773 2772 2772 2771 2771 2770 2770 2770 2770 2769 2768 2767 2766 2766 2765 2765 2765 2764 2764 2764 2764 2764 2764 2764 2764 2764 2764 2765 2765 2765 2765 2766 2766 2767 2768 2769 2770 2771 2772 2774 2775 2777 2779 2780 2782 2784 2787 2789 2792 2794 2797 2799 2802 2804 2807 2810 2814 2817 2821 2825 2829 2833 2837 2841 2845 2849 2853 2857 2862 2868 2873 2876 2879
2790 2788 2786 2784 2783 2781 2780 2779 2778 2777 2776 2775 2774 2774 2773 2773 2772 2772 2771 2771 2770 2770 2769 2768 2767 2766 2765 2765 2764 2764 2763 2763 2762 2762 2762 2762 2762 2763 2763 2763 2763 2763 2763 2764 2764 2764 2764 2765 2766 2768 2769 2770 2771 2773 2775 2776 2778 2780 2783 2785 2787 2790 2792 2795 2798 2801 2804 2806 2809 2812 2815 2819 2823 2827 2832 2835 2839 2843 2847 2851 2855 2860 2865 2870 2874 2878
2791 2789 2787 2785 2783 2782 2780 2779 2778 2777 2776 2776 2775 2774 2774 2774 2773 2773 2772 2771 2770 2770 2769 2768 2766 2766 2765 2764 2764 2762 2762 2761 2761 2761 2761 2760 2760 2760 2760 2760 2760 2760 2760 2761 2761 2762 2762 2763 2763 2764 2766 2767 2769 2771 2772 2774 2776 2778 2780 2783 2785 2788 2791 2794 2796 2799 2802 2804 2807 2810 2813 2817 2821 2825 2829 2833 2836 2840 2845 2849 2853 2857 2862 2867 2872 2877